Theta_e
310 310 310 310 310 310 310 310 310 310 310 310 310 310 310 310 310 311 311 311 312 312 312 313 312 313 313 313 313 313 313 313 313 313 314 314 314 315 315 314 313 313 314 316 315 316 316 315 316 316 316 318 319 321 320 320 320 320 321 320 320 320 320 321 321 320 319 319 319 319 319 318 318 318 318 316 317 317 317 318 318 318 318 317 317 317 317 316
310 310 310 310 310 310 310 310 310 310 311 311 310 310 311 310 310 310 310 311 311 311 311 311 312 312 312 313 313 313 313 313 314 315 314 313 314 314 314 314 314 313 314 315 316 316 316 316 317 316 318 320 319 320 321 321 320 320 321 321 321 321 321 321 321 319 319 319 319 319 319 318 318 318 318 317 317 318 318 318 319 319 319 318 318 318 317 317
310 310 310 310 310 310 310 310 310 310 310 311 311 311 311 311 311 311 311 311 311 311 311 311 312 312 312 312 312 313 313 314 315 316 314 314 315 314 314 314 314 313 313 315 316 316 316 316 317 316 318 319 319 320 321 321 320 320 320 320 321 321 321 321 321 320 319 319 319 319 318 318 318 318 318 317 317 318 318 318 319 319 319 319 319 318 318 318
310 310 311 311 311 311 311 311 311 310 311 310 311 311 311 311 311 311 311 311 311 312 311 311 311 312 312 312 312 313 313 316 317 316 314 314 315 315 315 314 314 314 313 314 315 316 316 316 316 316 318 319 319 320 320 320 320 320 321 320 320 321 321 321 320 319 320 319 319 319 318 318 318 318 318 318 317 317 318 318 318 318 318 318 318 318 318 318
311 311 311 312 312 312 312 312 312 312 312 311 311 311 311 311 311 311 311 311 312 312 312 312 312 312 312 312 313 313 314 317 317 315 315 315 316 315 315 314 314 314 314 314 314 315 315 316 316 316 318 318 318 319 319 320 320 320 321 320 320 319 319 320 320 319 320 319 318 318 318 318 318 318 317 318 317 316 318 317 317 317 317 317 317 318 318 317
312 313 313 313 314 314 314 314 314 314 314 314 313 313 313 313 312 312 312 312 312 313 313 313 313 313 313 313 314 314 315 318 317 315 316 315 315 316 315 314 314 315 314 314 314 314 315 316 316 317 318 318 317 319 318 319 320 319 319 319 319 319 319 319 320 319 319 318 318 318 318 318 318 318 318 318 318 317 317 317 317 317 317 317 317 317 317 317
316 316 317 317 317 318 318 318 318 317 317 317 316 316 315 315 315 315 314 314 314 314 314 314 314 314 314 313 313 314 316 318 317 316 316 315 316 315 315 314 314 315 314 314 314 315 316 316 316 317 317 317 317 317 317 319 320 319 317 318 318 319 319 319 319 319 319 318 318 318 317 318 317 317 317 318 318 318 318 318 317 317 317 317 317 317 317 316
320 320 320 320 321 321 321 322 322 322 322 321 321 320 319 319 318 318 317 317 317 317 316 316 315 314 314 312 312 315 316 317 317 317 316 316 316 315 315 315 315 316 315 314 315 316 316 317 317 316 317 317 317 317 318 318 319 318 317 318 318 318 319 319 318 318 318 318 317 317 317 317 317 317 317 317 317 317 317 317 317 317 317 317 317 317 316 316
320 320 319 319 320 320 321 321 321 322 322 323 323 323 323 323 323 323 322 322 321 321 321 320 319 317 315 313 312 315 317 317 317 316 316 316 316 316 315 315 315 315 315 315 316 316 317 317 317 317 317 316 317 317 317 317 316 317 318 318 318 318 318 317 317 317 318 317 316 316 316 317 316 316 316 316 316 316 316 317 317 316 316 316 316 316 316 315
316 316 316 316 316 316 317 317 317 317 318 318 319 320 321 321 322 323 323 324 324 324 324 324 324 321 318 316 314 316 318 317 316 316 316 315 315 316 316 316 316 315 316 316 316 316 316 316 317 317 316 316 316 316 317 316 316 316 317 316 316 316 316 316 316 316 316 316 316 315 315 316 316 315 315 316 316 316 316 316 316 315 316 316 316 316 316 316
314 314 314 314 314 314 314 314 314 314 314 314 314 315 315 316 316 317 318 320 321 323 324 324 324 323 321 317 316 318 319 318 318 318 316 315 314 314 314 315 316 315 316 316 315 316 316 317 317 316 315 316 316 316 316 316 315 315 315 315 315 315 316 315 316 316 316 316 315 315 315 315 315 314 315 316 316 316 316 316 316 315 315 315 315 316 316 316
314 314 315 314 314 314 314 314 314 313 314 313 313 313 313 314 313 313 314 314 315 317 318 320 322 322 321 317 317 320 321 320 321 320 317 315 313 312 312 313 315 315 315 316 316 315 315 316 315 315 315 315 316 316 315 314 314 314 314 313 314 315 315 316 316 316 316 316 315 314 314 315 316 316 316 317 317 316 316 316 315 315 315 315 315 315 315 315
314 314 314 314 314 314 314 314 313 314 314 314 314 314 314 314 314 314 314 313 313 313 313 315 317 319 318 317 318 321 322 321 321 321 319 317 314 312 312 312 313 314 314 316 317 316 314 314 315 316 315 315 315 315 313 313 314 313 314 313 314 315 315 317 317 316 316 315 314 313 313 316 318 318 318 318 316 316 315 315 315 315 315 315 315 315 315 315
314 314 314 314 314 314 314 314 314 314 314 314 314 315 315 315 315 315 315 315 314 314 313 313 313 314 314 316 318 318 319 319 319 320 320 318 316 314 312 312 312 312 313 314 315 315 314 314 315 315 315 314 315 314 313 314 314 314 314 314 314 314 316 318 317 315 314 314 313 313 313 315 317 318 318 317 316 315 315 315 315 315 315 315 315 315 315 315
314 314 315 315 315 316 316 316 316 316 316 317 317 317 318 318 318 317 317 316 316 315 315 314 313 312 312 315 315 316 316 317 317 318 318 317 315 313 312 311 311 312 312 313 313 313 313 314 314 315 315 314 313 313 313 314 314 314 315 315 316 316 317 319 317 315 315 313 312 313 313 315 316 317 317 317 316 315 315 315 315 315 315 315 315 315 315 315
315 316 317 317 317 318 319 319 319 320 320 320 321 321 321 321 321 321 320 319 318 317 316 315 315 313 313 315 315 315 316 316 316 317 316 316 314 313 313 312 311 311 312 312 313 313 313 313 314 314 314 314 313 313 314 314 316 316 316 315 317 317 317 318 318 317 316 313 313 313 313 314 315 316 316 315 315 315 315 315 315 315 315 315 315 315 315 315
319 319 319 319 320 321 321 322 323 323 323 323 323 322 322 323 322 322 322 320 319 318 316 315 314 312 314 316 317 316 315 315 315 315 315 314 314 314 313 312 312 311 312 312 312 312 312 313 313 313 314 314 314 314 315 316 316 317 318 317 318 318 318 317 318 318 315 313 313 313 313 313 314 314 315 315 315 315 315 315 315 315 316 315 316 316 315 315
321 322 322 321 321 322 323 323 324 324 323 323 323 322 322 322 322 322 321 320 318 316 315 314 313 315 317 317 316 315 315 315 315 314 314 314 313 313 313 312 312 312 312 312 312 312 312 313 313 314 315 314 314 315 316 317 317 317 318 317 318 318 318 317 318 318 316 314 314 314 313 313 314 314 315 315 315 316 315 316 316 316 316 316 316 316 316 316
321 322 322 322 322 321 322 322 322 322 322 322 321 321 322 322 322 321 319 318 317 318 318 315 314 318 320 316 315 316 315 315 315 315 314 314 314 313 312 312 313 313 314 314 314 313 313 314 314 315 316 316 316 315 316 317 317 318 318 317 317 317 317 317 318 318 316 315 314 314 314 314 314 314 315 315 315 316 316 316 316 316 316 317 316 316 316 315
322 322 322 322 322 321 321 321 321 321 321 321 321 321 322 322 322 321 317 317 318 320 320 318 317 318 319 318 316 316 315 315 315 315 315 314 314 313 313 313 314 314 315 316 315 314 314 315 316 316 317 318 318 317 317 317 317 318 317 316 316 316 317 317 317 317 315 313 314 314 314 314 314 314 314 316 316 316 317 317 317 317 317 317 317 315 314 312
322 322 322 322 322 321 321 321 321 321 321 321 320 321 322 320 321 321 318 320 321 321 321 322 320 319 320 319 317 317 316 315 315 314 314 314 314 314 314 314 314 315 316 317 316 314 314 316 317 317 317 318 318 317 317 317 316 317 316 316 316 316 317 317 317 317 314 312 314 314 313 314 314 314 315 316 316 317 317 317 317 317 317 316 315 313 311 309
321 322 323 323 323 322 322 322 321 321 320 320 320 321 321 320 320 320 318 319 321 321 321 322 321 320 322 320 318 319 317 315 316 315 314 313 313 315 315 314 315 316 316 316 315 314 314 316 316 317 318 318 317 316 316 316 315 316 316 316 316 316 317 317 317 316 313 312 313 313 313 313 314 315 316 317 317 317 318 317 317 316 316 314 313 311 309 308
322 323 323 323 323 323 322 322 321 320 320 321 321 321 321 321 320 320 317 316 319 321 321 321 320 319 320 319 317 317 316 316 317 316 314 313 313 314 315 315 315 316 316 315 316 317 317 317 317 317 318 317 316 316 315 315 315 315 316 316 316 317 317 317 316 315 312 312 313 313 313 313 315 316 317 317 317 317 317 316 316 315 314 312 310 309 308 306
324 324 324 323 323 323 322 322 320 320 320 321 321 321 321 321 320 319 316 317 319 321 320 319 317 317 317 316 315 315 315 316 317 316 314 314 314 314 315 316 316 316 316 315 316 317 318 318 317 317 317 316 316 316 316 315 316 316 316 316 316 316 316 316 316 315 314 314 313 312 314 315 317 318 317 317 317 318 317 316 314 313 312 310 309 308 307 306
325 325 325 323 323 323 322 321 320 320 321 321 321 321 321 321 320 317 315 318 321 320 319 317 316 316 315 314 314 314 315 315 314 315 314 313 315 314 315 315 316 316 317 316 316 316 317 317 315 315 315 315 315 315 316 316 316 317 317 317 316 316 316 316 315 315 314 315 313 313 316 317 317 318 317 317 317 318 317 315 313 311 310 309 308 307 306 305
325 325 324 323 323 322 321 321 320 320 321 321 321 321 321 320 319 316 314 319 323 321 320 317 316 315 313 312 312 312 315 315 312 312 312 313 314 313 314 315 315 316 316 316 316 317 316 314 313 315 315 315 315 315 316 316 316 317 316 315 315 314 314 314 314 314 314 315 314 313 315 317 317 318 318 318 317 317 316 313 311 310 309 308 307 306 305 304
326 325 324 323 323 321 320 321 320 319 321 322 321 321 321 320 319 315 315 322 325 322 319 316 314 314 311 311 311 312 316 315 311 311 311 312 313 312 313 315 314 314 313 315 317 316 315 313 312 314 314 315 316 316 316 315 316 317 315 313 313 313 313 314 314 314 314 315 315 314 315 317 317 317 319 318 317 317 316 312 310 309 309 307 306 305 304 303
325 325 324 323 322 320 319 319 318 319 321 322 321 321 320 320 318 315 318 326 325 319 317 314 312 312 311 311 311 311 312 312 312 312 310 311 312 311 313 315 315 314 312 314 317 316 314 314 314 314 314 315 316 316 316 315 315 316 312 312 313 312 313 313 313 314 314 314 316 315 315 317 318 317 318 318 316 317 315 311 309 309 308 307 306 304 303 302
325 324 324 323 321 319 318 317 316 318 319 320 321 321 320 319 317 316 320 325 323 318 315 313 312 311 311 311 311 310 310 310 312 311 310 311 312 310 312 313 314 313 312 313 317 316 313 311 312 314 314 315 314 313 314 315 315 313 312 312 313 313 313 313 313 313 313 314 316 317 316 317 318 316 317 316 315 316 314 310 309 308 307 306 305 304 303 302
324 324 323 322 320 319 317 316 316 317 318 320 321 321 320 319 317 318 322 323 321 318 314 312 312 312 312 312 312 311 311 310 311 311 311 311 311 310 310 310 311 312 313 312 314 314 311 308 309 312 313 313 311 310 311 313 313 312 312 313 313 314 314 313 313 313 314 316 317 317 316 316 317 316 316 316 315 316 314 310 308 308 307 305 304 303 302 301
323 323 323 321 319 318 317 317 317 317 318 320 321 320 320 321 318 320 322 320 317 318 315 314 313 312 313 313 314 313 311 311 311 311 312 311 311 311 310 311 311 312 313 313 313 314 311 309 309 311 311 311 310 310 310 310 311 312 312 312 313 315 315 314 314 313 316 319 318 317 316 316 316 316 315 315 314 314 314 311 309 307 306 304 303 302 301 300
321 321 321 321 319 318 317 317 317 317 319 320 320 319 320 320 319 320 321 317 317 320 318 315 313 313 313 313 314 314 312 313 312 312 313 313 313 313 313 314 315 316 316 316 316 315 314 313 312 312 310 310 311 312 311 310 310 311 312 312 314 316 318 318 317 316 318 319 316 315 316 316 316 315 315 315 312 311 312 311 309 306 305 303 302 301 300 299
320 320 320 319 319 318 317 316 316 316 319 320 319 319 319 318 319 319 319 318 319 319 317 315 313 312 313 314 316 315 313 313 312 311 313 313 314 314 315 315 315 316 317 317 317 317 318 317 314 313 312 310 311 313 314 314 312 311 312 314 315 317 320 321 321 320 320 319 314 313 315 316 315 315 315 314 310 309 309 308 307 305 303 302 301 300 299 298
319 318 318 317 317 317 316 315 316 316 318 320 319 318 318 318 319 318 319 318 318 317 316 316 315 313 314 317 316 314 315 315 312 311 312 313 314 316 317 316 314 314 315 315 316 317 318 318 316 315 314 312 311 313 315 315 314 313 314 314 316 317 320 321 321 320 321 320 315 313 314 315 315 314 313 310 308 307 307 305 304 303 302 301 300 299 298 298
317 316 316 316 315 315 314 315 317 317 318 320 320 318 318 318 318 317 318 318 318 318 316 316 317 317 317 317 316 314 315 317 314 313 314 315 316 317 317 316 313 313 314 316 316 316 317 318 316 313 311 311 312 313 313 314 315 314 313 314 315 316 317 319 319 320 320 320 317 315 315 316 315 313 309 308 307 306 305 304 303 302 301 300 299 298 298 297
315 315 315 315 314 314 313 314 317 317 317 319 319 317 317 317 317 317 318 317 317 318 317 317 318 319 318 317 318 316 315 315 315 315 316 316 316 316 316 315 313 313 314 316 317 317 317 318 315 312 311 310 311 312 311 312 315 313 313 314 314 314 315 317 318 319 318 318 317 317 316 315 315 314 309 307 306 305 304 304 303 302 301 300 299 298 297 296
313 313 314 314 313 313 312 313 315 316 317 319 317 315 316 316 316 317 318 317 316 317 317 317 317 318 318 318 319 318 316 315 315 316 317 317 316 316 315 315 313 313 314 315 316 317 316 317 316 314 314 311 308 309 310 310 312 313 313 314 313 313 314 314 316 317 317 317 317 316 316 315 316 315 311 308 307 305 303 303 302 301 300 299 298 297 296 296
312 312 313 314 313 312 312 312 314 316 318 318 315 315 316 316 316 316 317 316 316 316 316 316 316 317 317 317 318 319 317 317 317 316 317 317 316 315 315 314 312 310 312 313 314 314 314 316 316 315 315 312 308 309 311 311 311 312 312 312 313 315 315 314 316 316 317 318 317 316 316 315 316 315 313 311 308 305 303 302 301 301 300 299 298 297 296 295
311 311 311 313 313 312 312 314 316 317 318 316 315 315 316 316 316 316 316 315 316 316 316 316 316 316 316 316 317 318 317 317 317 316 316 316 316 315 314 315 312 310 311 312 314 314 313 314 316 315 314 312 310 311 313 312 311 310 310 311 312 313 314 314 315 316 317 317 317 317 316 315 315 314 313 312 308 305 304 302 301 300 299 298 298 297 296 295
309 310 311 313 313 312 312 315 317 317 317 316 315 316 316 316 317 316 315 315 316 316 315 316 315 315 316 317 317 318 318 317 317 317 317 316 316 316 314 315 314 310 310 312 314 314 313 314 315 315 313 313 312 313 313 313 312 311 310 311 312 312 312 314 314 314 316 316 316 316 315 316 313 311 311 310 308 306 304 302 300 299 298 297 297 296 295 295
307 309 312 312 311 311 313 315 316 317 317 316 315 316 316 316 316 315 314 315 316 316 316 316 316 316 317 318 317 317 318 317 317 318 318 316 316 316 315 314 314 312 311 312 314 313 313 314 314 314 313 313 313 313 313 313 313 313 312 312 312 312 313 314 314 314 314 314 314 314 314 315 311 307 308 307 305 305 303 302 300 299 298 297 296 295 295 294
307 309 312 312 310 311 314 315 316 316 317 316 315 316 317 316 315 315 315 314 315 316 316 315 316 317 317 317 317 317 317 317 317 317 317 316 315 315 314 313 314 313 313 313 314 313 312 313 313 313 313 313 313 312 312 313 312 312 313 312 312 312 312 313 314 314 313 313 314 313 314 314 307 303 304 304 302 303 302 301 300 299 298 297 296 295 294 294
308 310 312 311 310 312 314 316 316 316 316 316 316 316 316 316 316 315 315 315 315 315 315 315 315 316 316 316 315 315 316 316 315 315 315 315 314 313 313 313 313 313 313 313 314 312 310 312 313 313 312 312 312 312 312 312 312 312 313 312 313 312 312 313 312 311 311 312 313 312 314 313 306 301 302 302 301 301 301 300 300 299 299 297 295 294 294 293
309 310 311 310 310 312 314 315 316 316 316 315 315 316 316 316 315 315 314 314 314 314 314 314 314 314 314 314 314 314 314 314 314 314 313 314 313 312 312 312 313 313 313 312 313 312 311 311 313 312 312 312 311 311 311 312 312 312 312 312 312 312 313 313 312 311 311 311 312 311 313 313 306 300 300 301 300 301 300 299 299 299 299 297 295 294 293 292
308 309 310 310 311 313 314 314 314 314 315 315 315 315 314 315 315 314 314 314 314 314 313 313 313 313 313 313 313 313 313 313 313 313 312 312 313 312 311 311 312 312 311 308 308 309 310 311 312 311 311 311 311 311 311 311 311 311 311 311 311 311 312 312 311 311 312 312 312 311 312 311 307 302 301 301 300 300 299 298 297 297 297 296 295 293 292 291
307 307 309 310 312 312 312 314 314 313 313 314 314 314 313 313 313 313 313 313 312 313 312 312 312 312 312 312 312 312 312 312 312 312 312 312 311 312 311 310 311 311 309 306 306 307 308 309 310 310 310 310 310 310 310 310 309 308 309 309 309 310 311 311 310 310 310 310 310 310 310 310 308 307 306 304 301 300 300 298 297 297 296 295 295 293 292 292
305 305 309 310 311 311 311 312 313 313 313 313 313 313 312 312 311 312 312 311 311 312 311 311 311 311 311 311 310 311 310 310 310 310 311 311 310 310 311 310 311 309 308 307 307 307 307 307 307 308 308 308 308 307 307 307 307 306 306 307 307 308 309 310 309 308 309 308 308 308 308 309 308 307 308 306 303 301 301 300 299 297 296 296 295 294 292 292
303 304 308 309 309 311 311 311 312 312 312 312 311 311 310 310 310 311 311 310 311 311 310 310 310 309 309 309 309 309 308 308 309 309 309 310 309 309 309 310 310 308 307 308 308 306 306 305 305 305 305 305 305 305 305 305 305 306 306 305 306 306 307 308 308 307 307 307 307 306 306 307 306 305 306 306 305 304 303 302 300 298 297 296 295 294 293 292
300 301 303 305 306 308 308 309 311 311 312 311 311 310 309 309 309 309 309 309 309 310 309 308 308 308 309 309 309 309 308 308 308 308 309 309 309 307 306 307 307 306 306 306 307 306 305 304 305 305 305 305 305 304 305 305 305 306 306 306 305 306 306 306 306 306 306 306 305 305 305 305 304 304 304 305 305 304 303 300 298 297 296 296 295 295 294 292
300 300 301 303 303 303 303 307 309 310 311 311 311 310 309 307 307 307 308 309 307 308 308 308 307 308 308 308 309 309 308 308 307 307 307 307 307 306 305 305 305 304 304 304 304 305 305 304 305 305 305 305 305 305 305 305 306 306 306 305 305 305 305 305 305 304 304 304 304 303 303 303 303 303 303 302 301 300 299 297 296 295 295 294 295 295 294 293
298 299 301 302 302 302 302 305 307 308 309 310 309 309 308 307 306 306 307 308 307 306 307 307 306 306 305 305 307 307 307 306 305 305 305 304 305 304 304 304 303 303 303 302 303 304 304 304 304 304 304 305 304 304 304 304 304 304 304 304 303 303 303 303 303 303 303 303 302 302 302 302 302 302 302 300 299 298 297 296 295 294 294 293 293 294 294 293
296 297 299 301 303 302 301 303 305 306 307 307 307 307 307 307 306 306 306 305 304 304 305 306 305 305 304 304 304 304 304 302 301 301 301 301 301 302 302 302 302 302 301 301 302 302 302 303 302 303 303 304 303 303 302 302 302 302 303 302 302 302 302 302 302 302 302 302 302 302 301 300 299 299 299 299 298 297 296 295 294 294 293 292 292 293 293 293
Wind_Speed
2 2 2 2 2 2 2 2 2 2 2 2 2 1 1 2 2 3 3 4 4 5 6 6 7 8 8 9 10 11 12 14 15 16 16 9 4 3 4 5 4 4 5 7 8 6 5 5 6 5 4 5 5 5 6 6 5 5 4 5 5 6 5 4 5 6 6 7 7 5 4 7 10 7 6 8 12 16 19 20 18 18 21 25 24 19 19 19
2 2 2 2 2 2 2 2 2 3 3 3 3 3 3 3 3 4 4 5 5 6 7 8 8 8 10 10 11 12 13 15 16 19 15 5 2 4 4 5 4 4 5 6 7 6 6 7 7 7 6 7 7 6 7 6 7 7 5 5 6 6 7 6 7 10 9 10 11 12 11 10 11 11 8 8 13 15 16 18 18 18 20 22 21 18 16 18
2 2 2 2 2 2 2 3 3 4 4 4 4 5 5 5 5 5 6 6 7 7 7 9 9 10 11 11 12 12 14 17 17 13 3 7 1 7 8 5 4 3 4 5 5 7 7 6 7 7 7 8 7 6 6 6 7 9 7 6 7 8 10 9 10 12 13 13 13 13 14 14 14 13 10 10 14 14 14 16 16 16 15 15 16 15 15 17
4 4 4 4 4 4 4 4 4 5 5 5 6 6 7 7 7 7 7 8 8 9 9 10 10 11 11 12 13 12 16 17 9 2 7 6 5 12 12 7 4 3 4 6 6 9 9 7 7 8 8 9 8 7 7 8 6 6 8 7 8 8 9 11 12 13 13 11 12 14 15 16 15 11 11 12 13 10 13 17 17 18 17 17 18 17 16 15
5 5 5 5 5 5 5 5 6 6 6 7 7 7 8 8 8 9 9 9 10 10 10 11 11 12 12 12 12 12 14 9 0 3 6 3 11 13 13 7 4 4 4 6 8 10 9 7 7 7 8 9 9 7 10 13 9 6 9 12 14 13 11 13 14 12 10 8 11 14 14 15 13 9 13 15 12 11 16 21 23 25 23 22 22 20 19 17
7 7 7 7 7 7 7 7 8 8 8 8 9 9 9 9 10 10 10 11 11 12 12 12 12 13 13 13 13 11 8 6 3 2 5 11 15 13 11 7 5 6 5 5 7 8 8 7 8 9 9 9 10 9 10 10 9 7 10 14 16 15 14 15 15 10 8 10 13 14 15 17 16 14 16 17 18 20 23 26 29 30 27 24 22 21 21 21
9 9 9 9 9 9 9 9 10 10 10 11 11 11 11 12 11 12 12 12 13 13 13 14 14 15 15 14 13 10 7 11 13 11 12 15 15 12 9 6 6 8 7 6 7 8 9 9 10 10 10 9 10 11 11 8 8 8 11 13 15 15 16 17 16 12 10 12 15 16 17 20 19 16 18 20 23 25 26 29 31 29 25 23 21 20 22 23
10 10 10 10 10 11 10 11 11 11 12 12 13 13 13 13 13 14 14 14 14 14 14 15 15 15 16 14 12 9 10 15 16 14 13 12 11 9 7 7 8 10 8 7 8 8 9 10 12 11 10 10 9 9 7 7 10 11 12 14 15 15 15 16 16 15 13 13 14 16 18 22 23 20 20 25 27 28 28 28 28 25 22 21 21 21 22 25
11 11 11 11 11 11 11 12 12 12 13 13 14 14 14 14 14 15 15 15 15 15 15 15 16 15 16 14 9 8 11 14 13 11 11 9 10 10 9 9 9 10 9 8 9 9 9 10 11 9 10 11 11 9 6 7 7 6 9 13 13 14 15 16 17 16 15 15 13 14 19 23 23 19 17 21 24 23 22 22 21 20 21 20 21 22 22 23
11 11 10 10 11 11 11 12 12 13 13 13 14 14 15 15 15 16 16 16 15 16 15 15 16 15 15 14 7 7 10 11 10 10 11 12 12 12 11 10 10 11 10 10 11 12 10 9 9 9 10 12 10 10 9 7 5 6 10 14 15 19 21 20 20 19 18 17 15 14 18 22 21 14 10 15 18 16 15 16 17 19 22 22 22 22 22 22
10 10 9 9 9 10 10 11 11 12 13 13 14 14 15 15 16 16 16 16 16 16 15 15 16 15 16 13 10 10 11 11 13 14 15 15 14 13 13 11 11 11 10 12 13 12 11 10 10 9 7 6 7 9 8 7 8 10 12 15 17 21 21 20 20 20 17 12 12 14 17 22 19 12 15 22 20 15 14 15 16 20 23 24 23 23 22 23
9 9 9 9 8 9 9 9 10 10 11 12 12 13 13 14 15 15 16 16 16 16 16 15 15 16 16 15 16 18 17 16 16 17 17 17 16 15 13 12 12 12 11 12 13 13 13 13 12 11 7 5 7 7 3 3 6 9 10 12 15 16 17 20 20 15 12 7 5 7 12 16 13 11 18 21 15 11 13 16 19 21 23 24 24 23 22 23
8 8 8 8 8 8 8 8 9 9 10 11 12 12 13 13 13 14 14 14 15 15 15 15 15 16 15 14 17 18 16 15 15 16 17 17 16 15 13 13 13 14 13 13 13 14 14 13 11 12 11 9 9 7 3 3 4 8 10 8 11 12 11 14 11 5 6 7 7 5 7 10 12 14 15 13 10 11 16 22 26 24 23 24 24 24 24 23
8 8 7 7 7 7 7 7 8 8 10 11 11 12 12 13 13 14 13 13 14 13 14 14 14 14 13 15 18 18 18 17 16 17 18 17 17 15 13 13 13 14 14 15 16 15 13 12 11 10 12 11 9 7 8 8 6 8 9 6 6 8 7 7 4 8 4 5 10 8 6 9 14 16 14 13 12 13 20 27 28 24 22 23 24 23 23 22
8 7 7 7 7 7 7 7 7 8 10 11 11 12 13 14 14 14 13 13 13 13 12 12 13 11 10 16 18 16 15 14 14 15 14 15 15 13 12 12 13 13 13 15 16 14 11 11 10 9 9 9 8 7 8 7 6 7 8 6 6 7 8 8 5 10 6 4 12 10 5 8 12 15 17 19 20 19 22 29 28 24 24 24 22 21 21 21
8 8 7 7 6 7 7 7 8 8 10 11 12 13 14 14 15 15 15 14 13 13 11 11 11 9 7 12 15 14 13 11 13 14 13 13 12 11 12 10 9 11 13 14 13 11 9 9 9 9 8 6 6 7 6 6 6 7 7 7 8 8 9 7 5 6 5 3 10 12 7 8 9 17 25 25 26 25 23 28 27 25 26 23 20 19 18 18
9 8 7 7 7 7 8 8 9 9 10 12 13 13 14 15 15 15 15 13 12 11 9 9 7 6 9 13 14 12 11 11 12 13 13 12 11 11 9 7 8 10 10 10 9 8 8 9 7 7 8 7 6 6 5 6 6 6 7 8 9 10 9 8 8 3 6 6 7 10 10 11 11 18 27 27 27 25 22 25 25 24 24 21 17 16 16 15
8 8 7 7 7 8 9 10 11 11 11 13 13 14 15 16 15 15 14 11 9 6 6 6 5 3 8 12 11 7 8 9 8 9 9 8 9 9 8 7 7 8 7 6 7 8 8 8 6 5 6 7 7 6 6 8 8 10 9 8 9 10 10 11 11 5 4 7 8 9 12 13 13 16 22 28 28 23 21 23 24 24 22 17 13 12 13 13
7 7 7 8 8 9 10 11 12 13 13 13 14 15 15 14 13 12 8 6 4 3 4 4 8 5 6 6 9 9 11 10 8 9 8 6 5 7 8 7 7 9 8 5 7 10 8 6 5 5 7 8 9 10 11 13 14 15 13 11 12 11 11 13 14 11 8 10 10 11 13 12 13 13 16 27 29 22 21 22 22 22 17 13 9 9 11 14
8 8 8 9 9 9 11 12 13 14 15 14 15 15 11 9 9 5 3 6 8 10 11 9 11 14 15 12 11 12 14 12 11 10 9 7 4 6 7 7 8 8 7 5 6 8 8 7 6 7 10 12 12 13 15 15 15 16 13 12 13 12 12 13 15 10 3 4 10 11 13 12 12 13 16 26 26 19 19 19 18 17 12 9 7 10 14 16
9 9 9 10 10 10 11 12 13 14 15 15 14 10 5 5 5 4 7 12 13 14 17 18 17 18 20 17 16 19 15 11 12 12 10 7 6 7 8 9 7 6 7 5 3 4 5 7 7 10 15 16 12 9 11 13 14 15 12 12 12 11 12 12 16 11 2 1 9 9 13 14 14 16 18 21 19 16 16 13 11 11 9 7 8 14 17 16
11 10 11 11 12 12 13 12 13 14 13 13 11 6 4 5 5 7 9 11 14 18 21 22 20 23 25 22 23 27 19 11 11 11 10 8 10 8 7 9 7 5 6 6 3 2 6 8 11 16 17 14 10 8 10 13 14 13 10 10 9 9 11 12 12 7 2 1 7 10 12 13 16 20 18 14 13 13 11 8 7 8 7 10 14 17 18 19
13 12 12 12 12 13 14 13 13 12 11 9 7 5 5 6 6 9 8 8 13 18 19 20 19 21 21 18 22 24 17 15 13 10 9 9 11 9 8 8 8 7 6 8 8 6 6 7 10 17 15 11 11 11 11 12 10 9 8 8 8 9 9 8 4 1 0 5 8 11 11 11 15 17 13 10 12 11 5 3 6 9 12 17 19 19 20 22
15 15 14 13 12 13 14 13 11 10 8 6 6 6 6 7 7 10 8 8 9 11 15 17 15 14 12 12 15 14 12 12 10 9 11 11 10 9 9 10 10 9 8 11 13 12 12 8 3 8 9 9 12 12 11 10 8 9 9 9 10 11 11 11 7 5 7 7 5 8 9 7 7 8 7 7 8 9 2 5 11 16 16 18 20 20 20 20
16 17 16 14 13 13 13 13 10 8 6 5 5 5 7 7 7 9 6 6 6 6 11 10 5 6 8 8 9 7 8 9 9 10 14 15 12 7 6 9 9 9 11 13 13 11 13 7 1 4 7 8 10 10 11 9 7 7 8 9 11 12 12 13 11 7 8 4 2 3 7 5 2 5 7 5 6 8 4 10 14 18 16 16 18 18 18 17
18 18 17 14 13 14 12 10 8 5 3 4 4 6 7 6 7 8 5 4 5 3 5 4 2 3 2 1 2 5 5 6 9 12 14 17 16 8 3 5 6 7 5 6 7 6 6 1 2 4 8 8 8 10 12 9 7 6 3 3 6 8 9 9 8 5 5 4 1 1 6 7 4 8 11 7 9 8 7 12 14 16 14 13 15 16 16 16
19 18 17 14 12 13 10 7 7 3 1 4 4 5 6 5 6 7 3 5 5 2 3 2 2 2 1 1 4 5 2 2 5 7 12 16 14 8 5 5 5 4 1 1 3 2 4 3 1 3 6 7 7 8 7 7 7 4 1 3 3 5 6 5 5 5 5 7 7 6 7 8 6 8 10 10 12 9 9 13 12 13 11 12 14 15 16 16
19 17 17 14 13 12 10 10 8 3 4 5 3 4 4 4 5 5 3 5 2 2 3 3 2 1 1 4 5 2 2 2 2 3 10 14 11 6 8 8 6 4 6 5 4 1 3 4 4 5 6 6 6 3 1 5 7 1 3 2 2 3 4 3 4 5 5 7 7 7 8 6 7 5 5 9 12 10 11 12 11 10 9 12 13 13 14 15
18 17 16 14 13 12 12 11 8 6 6 5 2 2 3 3 3 3 3 4 1 2 2 2 2 2 4 5 5 2 1 1 1 1 6 10 10 5 4 7 6 4 6 8 8 3 2 3 2 4 5 5 3 2 3 4 5 1 2 1 1 3 4 4 5 5 5 7 8 8 10 6 7 4 6 6 9 9 12 11 9 10 10 11 11 12 12 13
16 16 16 14 12 12 11 9 7 6 5 3 1 1 3 2 2 3 6 4 2 2 2 3 2 2 4 5 5 4 3 1 3 5 5 4 7 6 3 3 4 5 5 8 10 7 2 4 1 4 7 2 4 4 2 1 1 2 1 3 4 6 6 5 5 3 4 7 10 10 15 9 6 3 5 3 3 6 9 10 9 10 12 11 11 11 11 12
16 16 16 14 12 11 10 9 6 5 4 4 2 2 1 1 2 6 6 2 2 1 3 2 1 2 4 2 1 4 4 2 5 6 4 3 6 7 4 2 3 4 5 5 8 8 5 4 3 4 5 2 3 2 1 2 2 2 3 3 5 6 4 4 4 3 5 8 6 6 14 12 7 3 2 2 4 4 6 10 11 10 11 12 10 9 11 13
17 17 16 15 14 13 11 9 7 6 6 5 2 1 2 3 5 8 4 1 1 2 2 1 1 2 2 1 1 2 1 2 6 5 3 3 4 6 7 5 2 3 6 4 2 3 5 7 7 5 4 6 5 2 2 3 3 3 3 3 5 6 4 6 5 4 6 5 1 4 7 8 8 7 5 4 7 7 8 10 12 13 13 12 10 8 12 14
17 17 16 16 16 15 13 11 8 8 8 6 4 2 3 5 6 5 5 4 1 2 2 2 1 2 1 2 2 2 0 2 6 5 2 2 4 5 9 7 2 2 5 4 5 4 3 2 7 6 3 9 10 4 3 3 4 6 4 4 5 6 7 8 8 7 8 4 4 2 3 5 7 8 7 6 10 10 12 14 15 16 15 12 10 10 14 15
17 17 16 15 16 15 13 12 11 10 10 8 5 3 5 9 5 1 4 7 1 2 2 2 1 2 3 3 1 1 2 2 5 4 3 4 4 5 7 7 4 3 4 4 5 5 6 4 5 6 1 8 12 8 5 3 1 7 4 4 5 6 7 9 8 7 9 7 3 2 2 4 5 0 4 8 12 13 14 15 15 15 14 12 12 14 15 16
16 16 16 16 16 15 14 14 14 12 12 9 3 4 8 9 5 2 4 6 2 0 2 1 0 2 5 5 3 2 3 2 3 3 3 4 5 5 5 3 5 5 3 4 3 3 8 7 2 3 1 4 7 5 3 2 2 3 2 3 5 5 6 7 8 8 9 10 7 5 4 5 5 5 11 10 12 13 13 14 13 13 12 12 13 14 14 14
15 16 17 16 16 15 13 15 17 16 14 10 3 7 9 5 4 3 2 3 3 2 1 2 4 5 7 5 5 5 3 2 1 2 3 4 5 6 5 1 3 8 6 4 4 2 5 5 4 3 1 2 1 2 1 2 3 1 2 3 2 2 4 6 9 9 9 11 9 7 7 8 7 4 11 10 10 10 10 10 11 12 12 12 13 12 12 12
15 16 18 18 16 14 13 14 17 18 16 9 5 8 5 4 7 7 1 1 1 1 3 5 4 4 6 5 4 5 4 3 2 3 3 3 3 5 7 1 1 6 6 3 3 2 3 5 1 1 2 2 2 3 2 4 2 1 3 2 3 1 2 4 8 8 10 12 8 8 12 11 8 4 6 10 9 9 8 8 10 10 10 11 11 10 10 11
15 16 18 19 17 14 14 15 18 19 15 7 8 9 5 5 8 8 4 4 1 1 4 7 4 3 5 6 4 3 6 4 4 4 4 5 3 3 5 2 3 1 2 1 2 1 3 5 5 3 3 1 3 1 4 5 4 3 3 2 2 4 5 5 6 7 9 11 8 10 14 11 9 8 3 6 10 10 8 8 8 8 8 9 9 8 7 8
16 13 14 18 18 17 17 18 22 22 13 6 9 8 6 6 7 7 7 5 2 3 5 7 6 5 6 7 5 2 5 5 4 5 4 4 4 2 2 1 2 1 1 1 2 1 2 4 6 2 2 2 3 3 6 5 4 2 3 1 2 3 4 6 5 5 8 10 9 10 10 8 7 7 6 3 11 12 9 8 7 6 7 6 6 6 5 5
14 9 9 13 17 18 20 22 24 19 10 7 8 6 4 5 5 6 9 7 3 2 5 7 7 7 7 7 5 3 3 4 5 5 4 3 4 3 2 1 2 3 1 0 2 1 2 5 6 3 3 4 4 5 6 7 5 4 4 5 4 3 2 4 5 5 7 9 9 8 9 7 4 5 7 7 9 8 8 8 6 6 7 5 5 4 4 4
13 6 7 11 15 21 25 22 16 11 6 7 8 7 6 4 2 4 7 8 5 2 2 3 5 7 5 5 5 2 1 3 4 5 4 4 6 5 2 4 2 4 3 2 3 2 3 4 7 7 4 6 8 6 7 10 8 6 6 6 6 7 5 5 7 7 6 8 8 9 11 7 2 5 7 7 7 6 7 7 7 7 6 5 5 4 4 4
12 4 6 12 17 26 28 15 8 9 8 8 8 7 6 4 4 5 5 7 7 5 3 2 4 6 4 5 7 5 4 4 5 7 6 6 10 8 1 3 3 2 1 4 3 0 1 2 6 9 9 11 14 13 13 12 9 8 7 7 8 8 8 9 10 7 5 8 8 9 12 6 3 5 6 7 6 6 7 7 7 7 5 5 5 5 5 4
13 7 7 13 21 31 26 9 7 10 8 10 10 7 6 5 6 7 7 8 8 7 6 5 7 9 8 8 9 9 7 5 6 9 9 8 9 4 2 2 1 1 2 5 4 1 2 2 6 8 8 11 14 15 12 8 6 7 7 7 7 7 7 8 7 4 4 6 7 9 11 5 3 4 5 6 5 5 5 5 6 5 4 4 4 4 3 2
11 8 7 13 23 30 22 8 7 10 10 12 11 10 10 8 9 9 10 10 9 8 7 7 9 10 9 8 8 9 8 5 6 7 7 8 4 3 4 2 1 2 2 3 2 1 1 4 5 7 7 7 9 10 6 1 1 3 4 5 5 5 6 6 4 3 4 7 9 10 10 5 1 2 2 3 3 3 4 4 4 4 4 4 3 2 3 3
9 7 6 14 26 29 20 10 7 9 12 15 14 13 13 10 9 11 12 12 12 10 8 6 7 8 8 8 7 8 9 7 6 4 4 6 3 2 2 2 1 1 2 5 5 3 3 4 4 6 8 8 8 7 5 1 1 1 4 7 7 8 9 8 6 7 8 8 10 9 9 5 2 2 4 6 6 6 6 6 5 6 6 6 6 5 5 5
9 7 5 12 22 23 19 15 12 9 10 13 11 11 14 13 8 8 9 12 14 14 12 9 6 5 8 10 8 9 11 10 8 5 5 6 4 0 3 3 2 2 4 4 4 2 2 4 6 10 11 11 11 11 10 9 7 8 9 10 11 10 10 8 7 9 9 8 9 11 12 11 8 9 9 7 8 7 7 8 8 9 9 9 9 8 7 6
7 5 5 9 11 12 13 14 14 10 9 12 8 6 13 16 10 6 8 9 10 11 12 12 10 9 9 10 10 10 11 12 11 10 9 9 8 5 2 1 2 1 0 1 2 1 3 6 11 14 14 15 16 17 18 16 14 15 15 15 15 14 12 11 12 13 11 10 11 12 13 15 13 15 14 8 6 7 7 10 12 12 12 12 11 10 9 8
5 2 6 10 7 6 7 9 13 12 12 12 8 7 12 14 11 9 8 6 4 6 8 9 11 14 13 12 10 8 10 11 11 11 10 8 7 6 4 4 1 1 1 2 4 2 5 8 11 14 15 17 19 19 19 18 16 16 17 18 18 18 17 16 16 17 14 13 13 13 16 18 16 17 20 17 11 10 11 12 13 12 12 12 12 11 10 9
5 1 5 9 5 1 1 4 10 14 14 11 8 11 14 14 13 10 5 4 4 6 9 10 11 11 11 11 9 8 9 9 7 6 3 1 1 2 4 6 1 4 1 2 3 4 5 7 10 13 14 16 19 20 19 18 17 18 18 20 20 20 22 21 20 20 18 17 18 19 22 21 18 18 20 15 9 9 10 10 10 10 11 11 11 11 11 9
5 2 4 7 3 2 2 3 8 9 11 11 9 10 12 13 15 10 4 5 7 7 9 11 9 3 1 2 5 9 10 6 4 2 2 2 2 3 4 5 1 2 1 1 3 4 5 7 8 7 9 13 16 18 17 16 16 17 17 18 20 21 21 20 19 19 18 18 20 22 23 19 16 13 8 4 6 8 8 8 8 8 9 9 10 10 10 9
9 6 6 5 3 3 3 3 7 6 7 11 10 10 12 15 17 13 5 3 5 6 7 8 5 2 2 2 7 10 6 2 2 2 3 1 4 4 2 1 1 2 2 1 2 2 4 6 4 4 7 9 10 13 13 11 12 14 16 19 20 19 17 16 16 16 17 18 20 21 19 13 7 3 2 4 6 5 6 7 6 6 6 7 8 10 11 10
10 8 7 4 2 5 6 3 6 8 7 11 14 12 9 9 11 13 9 3 3 1 3 4 4 4 5 8 8 4 3 7 5 3 3 1 2 3 4 4 3 4 3 2 2 3 4 5 4 5 6 4 7 10 7 5 8 11 11 13 17 17 17 17 16 15 17 17 16 13 9 4 2 2 1 2 4 4 4 4 5 5 5 6 9 10 11 11
Wind_Direction
29 34 32 33 32 23 21 14 10 8 7 2 347 336 306 283 276 272 274 281 281 288 295 301 307 312 317 320 322 323 322 320 315 308 303 297 281 311 328 314 297 269 249 236 231 229 231 215 209 208 198 212 221 225 229 225 206 208 232 244 253 257 270 271 266 292 298 299 301 292 276 280 289 273 253 265 260 262 269 272 265 256 255 266 282 285 283 293
339 351 352 352 350 353 351 340 335 333 333 329 323 319 310 302 294 286 285 285 284 289 293 299 302 308 313 316 320 321 320 317 311 307 301 259 140 19 345 312 294 273 250 240 237 219 208 206 207 207 200 219 225 221 235 220 201 216 244 257 253 262 283 288 283 293 292 290 297 300 296 284 282 285 284 275 274 277 277 277 274 266 260 264 278 283 282 288
301 306 309 314 320 323 316 312 312 311 310 308 306 305 304 303 300 297 295 293 293 295 297 299 302 307 309 313 316 318 321 316 311 312 273 162 99 349 343 320 279 275 244 238 233 210 214 217 208 209 217 236 227 210 232 209 201 228 237 257 256 264 278 274 278 285 283 289 294 294 296 289 281 281 275 269 279 283 279 279 279 280 279 274 280 289 283 276
290 293 296 299 302 300 300 300 297 299 299 297 295 295 296 296 296 295 295 295 295 295 298 298 299 303 305 309 312 317 322 313 301 281 160 162 309 319 328 322 259 252 230 227 221 216 226 224 211 218 232 250 232 213 233 208 196 230 223 247 269 280 281 271 282 287 281 288 289 290 293 286 286 283 263 265 281 280 273 279 286 292 297 295 294 298 290 272
286 288 292 293 295 293 290 288 286 288 287 286 286 285 286 287 287 288 288 289 290 292 294 294 295 297 298 302 304 316 322 312 156 141 172 261 304 302 315 312 240 228 224 219 224 227 229 217 212 223 235 254 241 221 241 223 212 246 236 249 267 275 278 278 289 290 282 289 287 284 283 285 292 280 261 263 268 267 274 283 289 292 295 295 294 294 289 277
278 281 284 286 286 284 283 281 280 280 279 278 277 277 278 278 279 279 280 282 283 285 287 288 290 290 292 295 298 307 309 295 306 266 254 292 297 296 303 293 238 225 221 217 228 229 221 210 212 225 236 253 250 239 256 234 209 248 256 255 265 270 273 282 291 290 280 282 281 282 285 289 287 276 274 269 262 266 274 279 285 289 291 293 291 287 283 279
272 275 277 278 277 278 277 277 276 276 277 277 277 277 277 277 278 278 279 280 281 283 285 288 289 290 292 294 297 296 260 266 284 280 284 291 286 288 287 273 240 225 227 223 225 220 212 213 219 238 251 255 262 256 262 248 211 242 268 269 273 275 275 280 287 286 278 275 276 283 287 284 278 278 284 277 271 273 275 276 281 287 291 290 287 282 281 283
275 277 278 278 278 278 277 277 277 278 279 279 280 280 280 281 281 282 282 281 282 284 285 288 289 292 294 295 300 289 245 259 282 284 286 283 273 274 262 258 241 227 234 227 223 219 215 225 231 245 257 258 272 269 262 256 239 243 259 272 277 275 274 279 282 277 272 273 276 279 276 272 275 282 283 278 277 276 273 274 278 284 287 287 284 280 281 286
280 281 281 282 282 283 282 282 282 282 282 283 283 283 283 284 283 285 284 283 284 284 286 288 290 291 293 295 295 279 256 265 285 285 277 271 266 262 255 260 245 232 237 229 219 218 222 238 243 244 262 276 279 273 262 251 258 260 267 284 289 284 281 282 280 271 266 269 273 274 270 272 280 285 278 270 273 274 270 270 279 287 288 286 282 280 279 281
281 282 283 284 285 286 285 286 286 286 287 286 287 286 286 286 286 286 284 285 284 284 286 285 288 289 290 291 275 263 266 267 280 281 274 271 265 260 260 261 248 238 237 235 224 219 228 247 253 246 266 282 277 269 258 245 287 314 295 295 290 285 283 278 275 268 263 267 263 262 272 279 284 287 273 267 272 275 268 267 281 292 290 287 283 281 279 274
279 280 284 285 285 286 286 287 287 288 288 288 289 289 289 289 288 288 286 286 284 284 285 283 286 284 285 283 252 248 266 270 282 285 278 273 267 262 262 259 250 241 235 239 235 226 231 245 250 248 260 273 270 267 248 248 289 295 295 297 286 282 280 273 270 264 258 260 251 251 272 280 278 263 251 264 274 274 269 272 282 290 290 289 287 283 280 276
275 278 281 283 284 285 285 288 289 291 292 292 293 292 294 293 292 292 290 288 286 284 282 280 281 279 283 275 253 256 269 274 281 282 275 272 271 267 262 252 244 240 235 235 240 235 233 243 243 239 251 271 280 277 241 256 284 281 287 290 285 284 280 273 268 259 244 229 204 237 276 280 271 255 253 266 283 284 280 283 287 290 290 289 288 284 281 280
271 274 276 280 281 283 286 289 292 295 296 297 299 299 299 298 298 296 294 293 290 287 285 281 278 278 279 269 263 270 276 277 277 274 272 272 271 268 261 251 243 242 237 227 234 238 236 243 238 237 253 264 273 277 282 291 267 276 280 272 285 289 282 276 262 214 210 198 166 200 279 290 286 287 288 301 319 306 295 291 290 291 290 287 284 284 284 286
263 265 268 273 277 281 286 293 298 301 302 304 305 305 305 304 303 301 299 297 293 291 288 281 278 277 271 268 273 276 276 277 273 269 270 271 270 269 263 253 245 241 238 231 235 242 242 238 227 241 255 251 269 291 282 272 253 271 278 257 267 275 282 286 205 161 201 183 167 204 265 283 289 297 304 316 315 305 297 291 291 292 291 286 284 287 290 292
250 253 258 266 275 283 289 297 302 305 306 307 308 308 308 307 305 305 302 299 297 293 288 282 278 272 269 274 277 278 276 272 267 267 267 266 267 267 260 254 248 240 235 235 238 242 241 226 217 238 251 241 260 284 274 266 255 259 268 263 254 256 281 290 206 187 228 183 172 203 264 273 282 298 300 303 302 298 291 287 290 293 291 288 290 294 293 295
246 250 255 263 273 283 292 297 300 305 306 306 309 309 310 309 308 306 304 302 297 291 286 282 273 260 262 273 275 278 277 265 266 272 267 262 259 255 256 250 242 236 230 232 235 234 223 208 213 234 245 243 244 254 264 268 262 246 245 260 265 273 285 291 276 231 227 168 185 209 260 278 283 296 295 296 294 289 284 284 288 292 290 291 297 298 298 303
252 256 260 268 275 283 290 295 299 305 306 308 311 312 314 314 312 310 306 303 297 292 284 272 263 256 256 262 270 276 277 274 274 274 269 262 251 246 249 233 223 226 221 222 219 208 200 197 210 232 231 240 244 243 256 259 264 262 251 254 261 273 285 290 300 284 166 172 212 221 244 266 274 284 288 290 287 282 280 283 287 288 286 292 301 304 309 317
259 263 267 274 282 291 296 300 305 307 311 314 315 318 320 317 316 311 304 302 297 294 280 243 210 242 250 250 262 266 275 283 280 277 274 261 245 233 222 215 208 192 181 190 192 182 187 195 205 235 229 231 234 223 236 248 264 283 282 280 279 280 291 291 290 289 215 236 255 252 256 269 273 274 282 286 284 283 282 282 282 281 284 293 305 314 327 342
268 273 278 283 289 296 300 306 308 309 314 316 316 322 324 324 319 307 302 307 287 273 290 204 193 254 287 268 270 270 276 283 284 280 272 256 236 211 202 199 180 173 175 176 181 180 186 196 197 226 237 234 225 213 231 250 265 282 287 287 288 285 285 282 280 289 298 284 277 277 278 280 279 278 280 281 284 288 284 278 277 277 284 297 312 336 0 20
268 275 282 286 290 297 301 307 309 311 315 315 321 327 332 338 323 306 316 298 272 269 281 260 240 264 280 279 274 274 280 284 281 271 261 256 221 189 183 170 167 191 213 205 180 172 187 213 209 219 238 247 246 234 242 257 270 281 284 277 277 278 275 274 278 289 3 300 281 286 289 288 283 280 274 275 283 288 280 274 274 279 292 310 340 21 36 40
264 272 282 287 291 296 298 306 309 312 316 316 326 335 340 346 318 304 318 299 280 271 273 271 264 260 264 267 265 266 272 281 278 265 256 236 186 179 173 169 182 213 216 195 149 136 190 227 228 231 245 258 271 273 267 271 274 276 276 274 273 272 271 272 279 286 71 276 282 292 295 295 293 281 271 273 279 278 276 280 287 296 320 352 33 50 50 46
268 273 282 289 296 300 301 308 308 309 315 317 329 340 325 326 304 300 311 294 282 279 276 274 266 257 259 258 255 257 257 260 263 254 246 203 177 193 182 180 212 223 178 162 162 177 213 233 234 239 252 265 273 280 278 272 271 271 266 269 269 267 275 278 276 279 107 238 289 302 299 296 289 281 278 276 271 269 280 306 325 335 18 49 53 54 49 44
277 283 289 295 301 305 307 311 307 304 310 313 322 330 324 323 316 318 311 277 281 284 275 263 252 252 258 252 251 254 247 246 248 232 220 185 178 199 195 196 229 233 186 191 225 236 237 238 234 244 256 265 264 265 267 265 262 256 252 260 264 265 277 284 276 114 151 266 286 298 293 281 274 273 271 258 257 264 273 356 32 51 68 72 63 55 49 42
283 287 290 296 302 305 308 309 304 297 298 304 310 319 330 328 329 337 317 267 274 274 259 251 240 243 248 241 250 251 233 234 236 217 204 189 184 192 206 221 233 238 223 222 234 242 256 266 234 244 254 253 262 267 260 259 260 249 245 249 258 269 276 283 297 319 301 279 268 286 287 276 272 268 241 211 253 271 200 97 76 74 72 75 71 63 56 47
282 285 286 291 298 303 305 306 299 285 285 299 312 327 343 344 345 352 330 266 265 245 239 243 231 237 241 240 247 234 217 221 213 206 196 191 191 180 208 223 223 243 238 233 242 249 261 277 116 226 249 247 256 264 255 254 268 263 250 247 259 276 284 288 300 314 304 281 176 308 307 298 320 282 247 210 282 283 132 98 80 71 56 58 66 64 62 55
280 282 283 286 295 300 303 301 288 276 287 296 314 343 353 357 351 354 352 270 267 202 194 214 194 205 219 258 215 184 201 211 208 212 197 190 191 186 223 201 200 258 261 237 253 260 261 301 72 245 254 251 245 255 256 251 265 270 276 287 275 279 284 289 298 298 289 284 255 314 301 288 287 275 257 240 270 262 125 94 80 74 63 58 57 57 57 53
277 280 282 285 292 294 292 278 267 267 258 270 311 352 356 0 353 356 350 263 266 133 126 151 167 207 232 180 171 180 201 154 174 202 194 192 190 195 235 198 188 235 167 174 271 243 208 187 123 220 237 244 236 253 255 228 246 265 33 2 312 284 282 282 286 273 270 291 283 237 241 266 280 278 251 226 248 237 129 95 79 78 76 73 65 59 56 49
272 274 277 282 283 281 271 260 261 246 223 251 317 358 5 2 349 352 297 271 294 101 103 113 141 217 179 161 167 167 33 109 143 177 186 195 188 191 233 233 244 226 166 193 237 172 150 178 183 185 206 234 230 264 336 208 237 285 65 345 324 299 284 267 270 273 274 291 281 217 205 252 280 278 221 211 239 217 134 102 93 91 76 70 67 63 59 54
269 269 270 272 270 268 262 256 256 239 233 254 300 351 19 359 329 334 258 263 6 94 108 104 137 130 125 151 177 186 46 70 0 102 168 191 188 186 252 252 268 256 189 213 240 249 131 157 183 190 207 235 218 40 22 235 239 88 106 234 248 246 252 245 254 277 277 270 268 220 190 233 287 260 194 201 233 200 136 108 112 113 90 73 65 62 60 56
268 267 266 263 258 258 260 258 249 233 232 234 200 61 29 337 283 252 229 238 350 56 126 135 119 138 167 185 189 191 205 59 71 127 150 180 194 205 287 291 269 257 227 234 250 257 180 119 65 231 227 227 98 79 17 294 202 116 215 266 271 255 248 246 242 263 267 257 262 220 190 214 284 239 193 187 212 182 134 122 126 113 97 82 66 61 60 57
267 265 262 259 252 249 253 254 241 215 201 195 148 86 20 251 239 236 230 262 326 147 141 154 128 159 193 232 219 184 199 175 138 161 173 163 189 207 238 241 214 231 237 235 242 242 210 190 211 214 213 163 113 149 162 107 134 199 247 294 302 277 245 243 227 196 246 267 279 196 186 213 246 219 203 138 112 109 114 128 133 117 102 89 72 63 62 59
265 263 260 256 248 240 238 243 238 209 196 193 162 143 254 243 229 230 222 39 306 190 133 110 136 165 185 263 253 165 177 181 167 187 214 185 198 211 219 222 209 245 256 253 246 231 214 211 202 182 183 189 196 223 180 164 179 205 244 265 285 287 261 258 251 225 252 267 96 140 190 225 245 249 242 165 108 86 85 105 120 117 106 96 88 76 67 62
262 260 254 247 243 237 232 235 235 216 200 185 175 194 248 244 236 234 217 210 262 67 76 55 94 144 191 243 220 144 155 173 165 188 216 200 231 230 222 224 231 289 276 297 320 296 268 202 177 175 186 190 195 222 235 212 184 191 216 229 243 277 276 271 272 264 268 262 117 134 223 240 258 256 230 153 104 95 93 94 104 108 106 105 98 81 68 61
256 252 245 237 232 225 217 218 218 211 198 181 182 205 221 232 235 17 228 221 240 65 89 41 36 191 230 249 231 132 228 191 157 183 198 198 229 249 238 220 200 240 266 278 292 272 274 284 179 173 159 174 189 227 274 350 193 202 213 240 245 264 268 273 279 273 279 291 291 240 206 243 273 290 118 110 100 99 98 97 99 100 102 100 87 74 66 59
246 241 233 227 223 211 201 202 200 197 190 173 169 220 218 227 222 193 232 232 251 60 124 75 4 249 258 242 197 180 231 212 141 177 218 228 253 272 264 221 189 208 224 246 261 236 251 270 119 106 38 162 187 239 299 341 271 215 173 232 251 266 265 270 277 275 285 292 279 244 227 263 268 120 113 110 103 97 95 98 99 95 94 88 76 69 64 60
237 234 228 223 219 207 196 196 193 192 187 165 163 228 225 239 230 210 237 232 229 253 252 219 213 245 265 249 205 187 200 202 152 255 242 235 264 261 247 258 177 196 201 239 266 267 251 254 81 77 265 160 158 352 25 251 276 98 153 227 269 302 285 277 275 275 275 275 270 256 256 265 260 163 124 113 100 98 100 98 95 92 88 80 72 67 63 61
234 236 235 228 218 205 196 196 194 192 184 171 205 233 235 250 240 235 226 105 206 264 267 252 236 248 262 261 236 187 175 195 192 224 236 218 240 231 217 213 94 207 221 265 279 338 305 272 271 261 244 121 72 352 307 243 253 189 206 283 3 299 255 264 268 270 266 265 264 262 266 270 272 253 135 130 123 114 113 105 99 98 91 83 78 70 66 65
234 237 242 237 220 202 194 195 194 187 179 187 227 238 251 237 230 229 182 125 116 170 224 241 243 261 258 261 265 171 163 199 194 193 235 246 228 184 200 199 57 257 229 218 254 14 9 285 278 271 256 127 103 274 261 218 213 254 281 9 354 257 249 246 250 258 262 265 264 262 267 270 266 271 254 174 152 134 128 121 111 104 96 92 89 80 69 68
228 228 245 243 224 205 193 189 187 183 180 206 227 232 247 237 229 223 191 161 147 171 216 239 238 251 253 252 268 200 177 218 238 226 239 247 229 202 221 215 85 30 15 147 245 11 64 270 281 271 198 150 136 222 252 227 199 265 309 275 227 254 270 261 255 258 260 265 271 268 265 263 264 298 335 112 139 140 143 133 118 107 101 98 97 92 76 67
215 213 248 239 218 204 192 187 187 185 187 220 225 220 235 239 231 213 198 187 174 187 223 236 232 241 251 249 251 237 209 230 239 234 230 231 249 269 340 20 143 137 64 274 207 169 195 235 265 269 165 180 216 222 247 260 243 227 232 227 224 221 251 269 258 247 253 264 271 271 264 260 285 356 29 81 113 130 139 131 123 117 113 107 102 98 86 74
201 209 252 223 204 194 185 185 194 196 202 224 229 231 228 221 184 172 192 200 205 220 224 230 237 242 251 249 235 202 204 235 225 231 234 228 246 258 38 39 64 121 141 223 203 206 246 242 260 271 247 245 260 256 266 283 283 268 257 245 248 253 259 268 256 237 238 256 261 268 268 263 333 24 41 70 82 93 110 118 121 123 122 117 103 95 85 74
190 213 236 204 193 186 179 183 209 205 212 225 229 233 214 183 173 170 175 193 203 216 212 206 237 239 234 239 242 234 231 237 229 232 239 235 243 249 122 57 24 62 166 269 268 231 329 271 258 263 260 264 275 279 280 282 277 270 269 261 264 267 257 256 263 263 260 261 263 267 267 266 49 34 47 67 71 81 93 104 115 119 117 108 96 86 75 63
195 215 209 192 188 183 179 194 220 206 220 228 226 225 194 184 215 210 199 202 208 215 218 222 231 234 237 239 246 248 243 245 241 237 245 249 249 268 37 52 352 329 288 276 273 69 65 253 251 258 262 267 274 274 273 274 256 248 252 251 257 263 260 263 274 294 286 272 273 269 264 263 53 37 54 72 78 90 103 116 126 133 131 119 100 84 86 83
201 206 200 189 183 183 186 205 212 209 224 225 230 233 219 222 234 227 220 220 221 225 227 234 236 237 242 243 248 252 246 247 250 246 253 254 247 71 60 43 292 255 295 312 322 25 306 250 254 271 274 272 273 265 255 212 176 247 269 285 290 295 296 296 286 280 266 242 241 258 268 266 103 82 94 127 153 158 163 160 159 175 176 161 148 138 164 171
191 194 199 187 183 190 206 223 219 220 222 223 233 236 234 237 227 223 233 234 231 233 236 240 244 249 251 247 250 251 244 245 257 269 264 251 249 78 89 60 0 199 88 63 63 55 279 267 270 274 272 268 267 267 274 327 51 291 292 286 285 285 281 283 281 274 263 238 233 252 273 273 187 187 206 202 208 207 193 187 197 207 202 194 196 198 203 202
190 197 188 185 191 206 225 233 233 236 224 223 233 233 234 239 221 202 220 236 238 237 240 245 246 252 250 243 245 249 245 244 243 250 260 250 252 144 112 79 31 93 105 95 91 93 268 270 264 260 262 264 266 275 291 302 294 286 285 275 272 271 268 271 271 262 264 270 264 262 270 276 273 269 256 215 204 217 212 203 207 210 210 208 210 212 213 216
203 215 179 176 197 222 234 233 231 234 228 224 226 226 233 238 236 206 199 225 243 236 237 245 240 239 244 240 244 251 253 251 244 243 253 257 264 270 240 262 310 322 194 177 150 189 267 267 265 263 261 263 267 273 278 282 278 277 280 275 271 269 262 254 253 257 269 281 270 265 274 280 282 285 287 275 226 218 220 217 214 212 212 210 207 209 214 220
206 230 179 171 183 218 225 222 218 222 232 232 227 234 238 235 234 226 209 210 238 231 231 239 236 237 241 239 241 248 250 253 248 245 250 256 269 278 266 257 232 123 256 195 157 208 271 267 266 269 268 267 269 271 271 273 274 275 274 271 269 268 263 257 257 263 269 268 268 278 283 282 285 286 287 290 273 232 219 217 212 210 208 204 204 209 214 219
208 283 186 177 179 226 199 186 199 212 227 230 230 238 240 237 234 232 209 189 216 224 225 234 237 236 240 242 241 238 242 249 250 247 247 279 308 293 280 274 208 114 111 227 207 236 261 261 264 268 270 269 270 271 272 274 274 272 268 267 267 265 263 265 268 271 270 268 273 279 277 275 279 279 279 281 262 219 207 201 196 198 200 201 208 214 216 222
198 201 169 173 177 41 50 170 186 200 219 222 227 234 236 240 241 235 194 194 223 222 218 230 239 231 349 274 233 234 243 257 283 288 60 48 297 282 284 283 271 102 46 302 267 259 253 264 279 285 276 270 270 273 274 274 274 272 269 266 263 261 263 266 268 269 270 271 272 272 271 272 272 271 266 225 176 181 186 187 194 202 202 205 215 221 225 232
210 194 161 167 192 152 136 187 194 199 219 219 223 231 230 236 240 237 219 195 233 239 227 228 227 130 82 255 245 251 264 20 23 2 62 23 290 304 315 309 347 332 326 316 294 287 265 269 293 300 274 265 267 275 281 284 282 274 264 258 256 257 261 261 260 264 268 272 274 273 273 276 276 264 158 157 165 177 193 199 211 216 209 215 228 233 237 241
218 204 179 176 194 173 159 169 198 206 222 226 229 234 233 235 237 232 224 160 93 299 250 228 226 225 237 249 253 258 59 71 76 66 53 11 287 294 282 271 271 267 260 255 261 256 258 270 288 284 273 261 263 278 304 328 290 268 251 246 251 256 261 261 261 264 265 268 275 276 275 294 14 62 297 229 182 185 216 224 231 232 232 245 250 249 250 252